Location: La Silve
(44.2414°N, 5.8889°E)
Time: 04:36:23
(UTC+00:00)

Cosmos 2056 Rocket - Pass Details

Date: 01 December 2020
Orbit: 741 x 801 km, 74.0° (Epoch: 24 January)

Event Time Altitude Azimuth Distance (km) Brightness Sun altitude
Rises 18:03:46 0° 344° (NNW) 3,251 6.8 -21.7°
Reaches altitude 10° 18:06:16 10° 352° (N) 2,330 6.0 -22.2°
Enters shadow 18:09:35 32° 20° (NNE) 1,315 4.4 -22.8°
